Time,TemperatureF,DewpointF,PressureIn,WindDirection,WindDirectionDegrees,WindSpeedMPH,WindSpeedGustMPH,Humidity,HourlyPrecipIn,Conditions,Clouds,dailyrainin,SoftwareType,DateUTC
2013-03-13 00:00:00,20.0,13.0,30.23,NNE,23,0.9,0.9,74,0.00,,,0.00,WUHU216HW,2013-03-13 05:00:00,
2013-03-13 00:05:00,20.0,13.0,30.23,NNE,23,0.9,0.9,74,0.00,,,0.00,WUHU216HW,2013-03-13 05:05:00,
2013-03-13 01:00:00,19.3,12.5,30.24,NNE,23,2.0,2.0,75,0.00,,,0.00,WUHU216HW,2013-03-13 06:00:00,
2013-03-13 01:05:00,19.3,12.5,30.24,NNE,23,2.0,2.0,75,0.00,,,0.00,WUHU216HW,2013-03-13 06:05:00,
2013-03-13 02:00:00,18.4,12.2,30.25,NNW,338,1.1,1.1,77,0.00,,,0.00,WUHU216HW,2013-03-13 07:00:00,
2013-03-13 02:05:00,18.4,12.2,30.25,NNW,338,1.1,1.1,77,0.00,,,0.00,WUHU216HW,2013-03-13 07:05:00,
2013-03-13 03:00:00,16.6,10.9,30.27,NW,315,0.9,0.9,78,0.00,,,0.00,WUHU216HW,2013-03-13 08:00:00,
2013-03-13 03:05:00,16.6,10.9,30.27,NW,315,0.9,0.9,78,0.00,,,0.00,WUHU216HW,2013-03-13 08:05:00,
2013-03-13 04:00:00,14.8,9.7,30.28,NNW,338,0.9,0.9,80,0.00,,,0.00,WUHU216HW,2013-03-13 09:00:00,
2013-03-13 04:05:00,14.8,9.7,30.28,NNW,338,0.9,0.9,80,0.00,,,0.00,WUHU216HW,2013-03-13 09:05:00,
2013-03-13 05:00:00,13.3,9.1,30.30,NNE,23,2.0,2.0,83,0.00,,,0.00,WUHU216HW,2013-03-13 10:00:00,
2013-03-13 05:05:00,13.3,9.1,30.30,NNE,23,2.0,2.0,83,0.00,,,0.00,WUHU216HW,2013-03-13 10:05:00,
2013-03-13 06:00:00,12.4,8.2,30.33,WSW,248,1.6,1.6,83,0.00,,,0.00,WUHU216HW,2013-03-13 11:00:00,
2013-03-13 06:05:00,12.4,8.2,30.33,WSW,248,1.6,1.6,83,0.00,,,0.00,WUHU216HW,2013-03-13 11:05:00,
2013-03-13 07:00:00,11.5,7.8,30.34,West,270,0.4,0.4,85,0.00,,,0.00,WUHU216HW,2013-03-13 12:00:00,
2013-03-13 07:05:00,11.3,7.4,30.34,WSW,248,0.4,1.1,84,0.00,,,0.00,WUHU216HW,2013-03-13 12:05:00,
2013-03-13 07:10:00,11.3,7.7,30.34,West,270,1.1,1.1,85,0.00,,,0.00,WUHU216HW,2013-03-13 12:10:00,
2013-03-13 07:15:00,11.5,7.8,30.35,West,270,1.3,1.6,85,0.00,,,0.00,WUHU216HW,2013-03-13 12:15:00,
2013-03-13 07:20:00,11.5,7.8,30.35,WSW,248,2.2,2.2,85,0.00,,,0.00,WUHU216HW,2013-03-13 12:20:00,
2013-03-13 07:25:00,11.3,7.4,30.35,WNW,293,1.3,2.2,84,0.00,,,0.00,WUHU216HW,2013-03-13 12:25:00,
2013-03-13 07:30:00,11.3,7.4,30.35,West,270,0.9,1.8,84,0.00,,,0.00,WUHU216HW,2013-03-13 12:30:00,
2013-03-13 07:35:00,11.2,7.5,30.35,NW,315,1.6,2.7,85,0.00,,,0.00,WUHU216HW,2013-03-13 12:35:00,
2013-03-13 07:40:00,11.3,7.4,30.35,WNW,293,1.1,2.7,84,0.00,,,0.00,WUHU216HW,2013-03-13 12:40:00,
2013-03-13 07:45:00,11.2,7.2,30.35,North,0,0.4,2.7,84,0.00,,,0.00,WUHU216HW,2013-03-13 12:45:00,
2013-03-13 07:50:00,11.2,6.9,30.35,WNW,293,0.2,2.7,83,0.00,,,0.00,WUHU216HW,2013-03-13 12:50:00,
2013-03-13 07:55:00,11.2,6.9,30.35,West,270,0.0,0.9,83,0.00,,,0.00,WUHU216HW,2013-03-13 12:55:00,
2013-03-13 08:00:00,11.2,6.9,30.35,West,270,1.1,1.1,83,0.00,,,0.00,WUHU216HW,2013-03-13 13:00:00,
2013-03-13 08:05:00,11.5,7.6,30.35,WNW,293,0.2,1.3,84,0.00,,,0.00,WUHU216HW,2013-03-13 13:05:00,
2013-03-13 08:10:00,11.7,7.5,30.35,WSW,248,1.1,1.6,83,0.00,,,0.00,WUHU216HW,2013-03-13 13:10:00,
2013-03-13 08:15:00,11.9,7.7,30.35,WNW,293,0.7,1.6,83,0.00,,,0.00,WUHU216HW,2013-03-13 13:15:00,
2013-03-13 08:20:00,11.9,7.7,30.35,WNW,293,0.7,1.1,83,0.00,,,0.00,WUHU216HW,2013-03-13 13:20:00,
2013-03-13 09:00:00,15.3,10.0,30.37,West,270,1.8,1.8,79,0.00,,,0.00,WUHU216HW,2013-03-13 14:00:00,
2013-03-13 09:05:00,15.3,9.6,30.37,SW,225,0.4,2.5,78,0.00,,,0.00,WUHU216HW,2013-03-13 14:05:00,
2013-03-13 09:10:00,15.8,10.5,30.38,West,270,0.4,2.5,79,0.00,,,0.00,WUHU216HW,2013-03-13 14:10:00,
2013-03-13 09:15:00,16.4,10.1,30.38,West,270,2.2,3.6,76,0.00,,,0.00,WUHU216HW,2013-03-13 14:15:00,
2013-03-13 09:20:00,16.4,10.4,30.38,West,270,0.7,3.6,77,0.00,,,0.00,WUHU216HW,2013-03-13 14:20:00,
2013-03-13 09:25:00,16.7,10.5,30.38,WSW,248,0.4,3.6,76,0.00,,,0.00,WUHU216HW,2013-03-13 14:25:00,
2013-03-13 09:30:00,17.5,11.1,30.38,West,270,0.2,3.4,76,0.00,,,0.00,WUHU216HW,2013-03-13 14:30:00,
2013-03-13 09:35:00,18.2,11.2,30.39,NNW,338,0.4,2.2,74,0.00,,,0.00,WUHU216HW,2013-03-13 14:35:00,
2013-03-13 09:40:00,18.9,11.9,30.39,ENE,68,0.4,2.2,74,0.00,,,0.00,WUHU216HW,2013-03-13 14:40:00,
2013-03-13 09:45:00,19.8,12.4,30.39,NW,315,1.1,2.2,73,0.00,,,0.00,WUHU216HW,2013-03-13 14:45:00,
2013-03-13 09:50:00,20.5,12.2,30.39,West,270,0.4,1.8,70,0.00,,,0.00,WUHU216HW,2013-03-13 14:50:00,
2013-03-13 09:55:00,20.9,12.6,30.39,WNW,293,1.8,1.8,70,0.00,,,0.00,WUHU216HW,2013-03-13 14:55:00,
2013-03-13 10:00:00,21.8,13.8,30.39,WNW,293,0.2,2.2,71,0.00,,,0.00,WUHU216HW,2013-03-13 15:00:00,
2013-03-13 10:05:00,23.6,15.6,30.39,WSW,248,0.0,2.2,71,0.00,,,0.00,WUHU216HW,2013-03-13 15:05:00,
2013-03-13 10:10:00,24.5,15.8,30.39,WSW,248,0.4,1.3,69,0.00,,,0.00,WUHU216HW,2013-03-13 15:10:00,
2013-03-13 10:15:00,25.2,16.7,30.40,SSW,203,1.1,1.3,70,0.00,,,0.00,WUHU216HW,2013-03-13 15:15:00,
2013-03-13 10:20:00,25.2,16.0,30.40,WNW,293,0.4,2.0,68,0.00,,,0.00,WUHU216HW,2013-03-13 15:20:00,
2013-03-13 10:25:00,25.6,16.7,30.40,WSW,248,0.4,2.0,69,0.00,,,0.00,WUHU216HW,2013-03-13 15:25:00,
2013-03-13 10:30:00,26.3,14.9,30.40,WSW,248,1.6,1.6,62,0.00,,,0.00,WUHU216HW,2013-03-13 15:30:00,
2013-03-13 10:35:00,24.7,12.8,30.40,SW,225,2.0,4.0,60,0.00,,,0.00,WUHU216HW,2013-03-13 15:35:00,
2013-03-13 10:40:00,24.1,13.0,30.40,North,0,1.3,4.0,62,0.00,,,0.00,WUHU216HW,2013-03-13 15:40:00,
2013-03-13 10:45:00,24.1,12.6,30.41,SW,225,1.3,4.7,61,0.00,,,0.00,WUHU216HW,2013-03-13 15:45:00,
2013-03-13 10:50:00,24.1,12.6,30.40,WSW,248,1.8,4.7,61,0.00,,,0.00,WUHU216HW,2013-03-13 15:50:00,
2013-03-13 10:55:00,23.9,12.8,30.40,West,270,2.2,3.8,62,0.00,,,0.00,WUHU216HW,2013-03-13 15:55:00,
2013-03-13 11:00:00,23.9,12.4,30.40,WSW,248,1.6,4.0,61,0.00,,,0.00,WUHU216HW,2013-03-13 16:00:00,
2013-03-13 11:05:00,24.1,13.3,30.40,West,270,1.8,4.0,63,0.00,,,0.00,WUHU216HW,2013-03-13 16:05:00,
2013-03-13 11:10:00,24.8,13.3,30.40,SSW,203,1.8,3.1,61,0.00,,,0.00,WUHU216HW,2013-03-13 16:10:00,
2013-03-13 11:15:00,24.5,13.0,30.41,WSW,248,2.7,3.8,61,0.00,,,0.00,WUHU216HW,2013-03-13 16:15:00,
2013-03-13 11:20:00,24.5,13.3,30.41,SW,225,3.6,3.8,62,0.00,,,0.00,WUHU216HW,2013-03-13 16:20:00,
2013-03-13 11:25:00,24.3,12.8,30.41,NW,315,4.0,4.7,61,0.00,,,0.00,WUHU216HW,2013-03-13 16:25:00,
2013-03-13 11:30:00,24.1,13.0,30.41,SW,225,1.8,5.4,62,0.00,,,0.00,WUHU216HW,2013-03-13 16:30:00,
2013-03-13 11:35:00,24.8,13.3,30.41,WNW,293,2.5,5.4,61,0.00,,,0.00,WUHU216HW,2013-03-13 16:35:00,
2013-03-13 11:40:00,24.8,13.3,30.41,WSW,248,1.8,4.9,61,0.00,,,0.00,WUHU216HW,2013-03-13 16:40:00,
2013-03-13 11:45:00,25.4,13.4,30.41,WSW,248,3.1,5.4,60,0.00,,,0.00,WUHU216HW,2013-03-13 16:45:00,
2013-03-13 11:50:00,25.2,13.3,30.41,WSW,248,1.8,5.4,60,0.00,,,0.00,WUHU216HW,2013-03-13 16:50:00,
2013-03-13 11:55:00,25.7,13.8,30.41,WSW,248,2.2,4.0,60,0.00,,,0.00,WUHU216HW,2013-03-13 16:55:00,
2013-03-13 12:00:00,26.6,14.6,30.41,West,270,2.7,4.0,60,0.00,,,0.00,WUHU216HW,2013-03-13 17:00:00,
2013-03-13 12:05:00,27.0,14.5,30.40,WSW,248,2.5,4.3,59,0.00,,,0.00,WUHU216HW,2013-03-13 17:05:00,
2013-03-13 12:10:00,26.6,14.1,30.41,West,270,2.9,4.7,59,0.00,,,0.00,WUHU216HW,2013-03-13 17:10:00,
2013-03-13 12:15:00,27.4,15.3,30.40,WNW,293,3.4,4.7,60,0.00,,,0.00,WUHU216HW,2013-03-13 17:15:00,
2013-03-13 12:20:00,28.8,15.8,30.40,WSW,248,1.1,3.4,58,0.00,,,0.00,WUHU216HW,2013-03-13 17:20:00,
2013-03-13 12:25:00,28.6,15.3,30.40,WSW,248,5.1,5.1,57,0.00,,,0.00,WUHU216HW,2013-03-13 17:25:00,
2013-03-13 12:30:00,29.5,15.3,30.40,West,270,4.3,5.1,55,0.00,,,0.00,WUHU216HW,2013-03-13 17:30:00,
2013-03-13 12:35:00,29.2,15.8,30.40,WSW,248,1.1,5.1,57,0.00,,,0.00,WUHU216HW,2013-03-13 17:35:00,
2013-03-13 12:40:00,30.2,16.4,30.40,WSW,248,3.1,4.7,56,0.00,,,0.00,WUHU216HW,2013-03-13 17:40:00,
2013-03-13 12:45:00,29.7,15.0,30.40,WSW,248,2.0,3.8,54,0.00,,,0.00,WUHU216HW,2013-03-13 17:45:00,
2013-03-13 12:50:00,29.3,15.6,30.39,WNW,293,1.8,3.8,56,0.00,,,0.00,WUHU216HW,2013-03-13 17:50:00,
2013-03-13 12:55:00,29.5,15.7,30.40,WSW,248,3.4,4.7,56,0.00,,,0.00,WUHU216HW,2013-03-13 17:55:00,
2013-03-13 13:00:00,29.5,15.7,30.40,WSW,248,4.3,5.8,56,0.00,,,0.00,WUHU216HW,2013-03-13 18:00:00,
2013-03-13 13:05:00,29.3,15.1,30.40,WSW,248,3.1,5.8,55,0.00,,,0.00,WUHU216HW,2013-03-13 18:05:00,
2013-03-13 13:10:00,29.2,15.8,30.40,West,270,3.4,4.7,57,0.00,,,0.00,WUHU216HW,2013-03-13 18:10:00,
2013-03-13 13:15:00,29.9,16.8,30.40,WSW,248,2.0,4.7,58,0.00,,,0.00,WUHU216HW,2013-03-13 18:15:00,
2013-03-13 13:20:00,31.1,16.8,30.40,West,270,4.3,4.7,55,0.00,,,0.00,WUHU216HW,2013-03-13 18:20:00,
2013-03-13 13:25:00,30.2,16.4,30.40,WNW,293,1.8,4.3,56,0.00,,,0.00,WUHU216HW,2013-03-13 18:25:00,
2013-03-13 13:30:00,29.5,16.1,30.40,West,270,4.0,5.6,57,0.00,,,0.00,WUHU216HW,2013-03-13 18:30:00,
2013-03-13 13:35:00,29.5,16.1,30.40,West,270,5.4,5.6,57,0.00,,,0.00,WUHU216HW,2013-03-13 18:35:00,
2013-03-13 13:40:00,29.9,17.3,30.40,WNW,293,2.2,5.4,59,0.00,,,0.00,WUHU216HW,2013-03-13 18:40:00,
2013-03-13 13:45:00,29.9,16.5,30.40,WNW,293,4.3,7.2,57,0.00,,,0.00,WUHU216HW,2013-03-13 18:45:00,
2013-03-13 13:50:00,29.5,16.6,30.39,WNW,293,4.0,7.2,58,0.00,,,0.00,WUHU216HW,2013-03-13 18:50:00,
2013-03-13 13:55:00,30.2,17.6,30.39,West,270,2.5,5.4,59,0.00,,,0.00,WUHU216HW,2013-03-13 18:55:00,
2013-03-13 14:00:00,30.6,17.6,30.39,NW,315,3.6,5.4,58,0.00,,,0.00,WUHU216HW,2013-03-13 19:00:00,
2013-03-13 14:05:00,30.4,17.4,30.39,WSW,248,4.0,6.5,58,0.00,,,0.00,WUHU216HW,2013-03-13 19:05:00,
2013-03-13 14:10:00,30.6,17.9,30.39,WNW,293,3.1,6.5,59,0.00,,,0.00,WUHU216HW,2013-03-13 19:10:00,
2013-03-13 14:15:00,31.1,18.9,30.39,West,270,3.6,6.5,60,0.00,,,0.00,WUHU216HW,2013-03-13 19:15:00,
2013-03-13 14:20:00,30.6,17.9,30.39,WNW,293,3.4,6.9,59,0.00,,,0.00,WUHU216HW,2013-03-13 19:20:00,
2013-03-13 14:25:00,30.1,17.8,30.39,WSW,248,2.9,6.9,60,0.00,,,0.00,WUHU216HW,2013-03-13 19:25:00,
2013-03-13 14:30:00,30.1,17.8,30.39,NW,315,3.8,7.2,60,0.00,,,0.00,WUHU216HW,2013-03-13 19:30:00,
2013-03-13 14:35:00,30.1,18.5,30.38,NW,315,2.0,7.2,62,0.00,,,0.00,WUHU216HW,2013-03-13 19:35:00,
2013-03-13 14:40:00,30.8,18.9,30.38,WNW,293,2.2,6.9,61,0.00,,,0.00,WUHU216HW,2013-03-13 19:40:00,
2013-03-13 14:45:00,31.3,18.6,30.38,WSW,248,2.5,4.7,59,0.00,,,0.00,WUHU216HW,2013-03-13 19:45:00,
2013-03-13 14:50:00,31.1,18.5,30.37,WSW,248,3.1,6.5,59,0.00,,,0.00,WUHU216HW,2013-03-13 19:50:00,
2013-03-13 14:55:00,31.5,18.5,30.37,West,270,4.7,6.5,58,0.00,,,0.00,WUHU216HW,2013-03-13 19:55:00,
2013-03-13 15:00:00,31.5,18.5,30.37,West,270,2.5,5.8,58,0.00,,,0.00,WUHU216HW,2013-03-13 20:00:00,
2013-03-13 15:05:00,31.7,17.7,30.37,WSW,248,5.6,5.8,56,0.00,,,0.00,WUHU216HW,2013-03-13 20:05:00,
2013-03-13 15:10:00,31.0,17.9,30.37,West,270,3.8,6.3,58,0.00,,,0.00,WUHU216HW,2013-03-13 20:10:00,
2013-03-13 15:15:00,30.8,17.7,30.37,WSW,248,2.0,6.3,58,0.00,,,0.00,WUHU216HW,2013-03-13 20:15:00,
2013-03-13 15:20:00,30.8,17.7,30.37,WNW,293,4.7,5.8,58,0.00,,,0.00,WUHU216HW,2013-03-13 20:20:00,
2013-03-13 15:25:00,30.8,17.3,30.37,West,270,4.0,5.8,57,0.00,,,0.00,WUHU216HW,2013-03-13 20:25:00,
2013-03-13 15:30:00,31.5,18.0,30.37,WSW,248,3.1,5.4,57,0.00,,,0.00,WUHU216HW,2013-03-13 20:30:00,
2013-03-13 15:35:00,31.9,18.4,30.36,SW,225,1.3,5.1,57,0.00,,,0.00,WUHU216HW,2013-03-13 20:35:00,
2013-03-13 15:40:00,32.0,17.6,30.36,WSW,248,4.7,5.4,55,0.00,,,0.00,WUHU216HW,2013-03-13 20:40:00,
2013-03-13 15:45:00,31.9,18.4,30.37,West,270,2.2,5.4,57,0.00,,,0.00,WUHU216HW,2013-03-13 20:45:00,
2013-03-13 15:50:00,32.4,18.4,30.37,West,270,4.7,6.3,56,0.00,,,0.00,WUHU216HW,2013-03-13 20:50:00,
2013-03-13 15:55:00,32.0,18.1,30.37,West,270,4.3,6.3,56,0.00,,,0.00,WUHU216HW,2013-03-13 20:55:00,
2013-03-13 16:00:00,31.7,18.5,30.37,West,270,2.5,6.0,58,0.00,,,0.00,WUHU216HW,2013-03-13 21:00:00,
2013-03-13 16:05:00,32.8,18.7,30.37,WSW,248,4.7,6.0,56,0.00,,,0.00,WUHU216HW,2013-03-13 21:05:00,
2013-03-13 16:10:00,32.2,18.3,30.37,WNW,293,4.0,6.3,56,0.00,,,0.00,WUHU216HW,2013-03-13 21:10:00,
2013-03-13 16:15:00,31.9,18.7,30.37,WNW,293,3.6,6.3,58,0.00,,,0.00,WUHU216HW,2013-03-13 21:15:00,
2013-03-13 16:20:00,31.7,18.2,30.37,WNW,293,4.3,7.4,57,0.00,,,0.00,WUHU216HW,2013-03-13 21:20:00,
2013-03-13 16:25:00,32.4,18.8,30.37,WSW,248,1.6,7.4,57,0.00,,,0.00,WUHU216HW,2013-03-13 21:25:00,
2013-03-13 16:30:00,33.1,19.1,30.36,NNW,338,2.2,4.7,56,0.00,,,0.00,WUHU216HW,2013-03-13 21:30:00,
2013-03-13 16:35:00,32.8,18.7,30.36,WSW,248,3.8,5.6,56,0.00,,,0.00,WUHU216HW,2013-03-13 21:35:00,
2013-03-13 16:40:00,32.9,19.4,30.36,WSW,248,3.6,5.6,57,0.00,,,0.00,WUHU216HW,2013-03-13 21:40:00,
2013-03-13 16:45:00,33.3,19.2,30.36,West,270,2.7,4.0,56,0.00,,,0.00,WUHU216HW,2013-03-13 21:45:00,
2013-03-13 16:50:00,32.8,19.2,30.36,West,270,4.0,4.9,57,0.00,,,0.00,WUHU216HW,2013-03-13 21:50:00,
2013-03-13 16:55:00,32.9,19.4,30.35,West,270,3.8,5.1,57,0.00,,,0.00,WUHU216HW,2013-03-13 21:55:00,
2013-03-13 17:00:00,32.8,19.2,30.36,West,270,5.4,5.4,57,0.00,,,0.00,WUHU216HW,2013-03-13 22:00:00,
2013-03-13 17:05:00,33.3,19.2,30.35,WSW,248,1.8,5.4,56,0.00,,,0.00,WUHU216HW,2013-03-13 22:05:00,
2013-03-13 17:10:00,33.1,19.1,30.36,WSW,248,3.1,5.4,56,0.00,,,0.00,WUHU216HW,2013-03-13 22:10:00,
2013-03-13 17:15:00,33.7,19.1,30.35,WSW,248,3.8,5.4,55,0.00,,,0.00,WUHU216HW,2013-03-13 22:15:00,
2013-03-13 17:20:00,33.5,18.9,30.35,WSW,248,2.7,4.0,55,0.00,,,0.00,WUHU216HW,2013-03-13 22:20:00,
2013-03-13 17:25:00,33.3,18.8,30.35,WSW,248,1.3,6.0,55,0.00,,,0.00,WUHU216HW,2013-03-13 22:25:00,
2013-03-13 17:30:00,33.3,18.8,30.35,WSW,248,1.3,6.0,55,0.00,,,0.00,WUHU216HW,2013-03-13 22:30:00,
2013-03-13 18:00:00,32.4,17.1,30.33,SSW,203,1.8,1.8,53,0.00,,,0.00,WUHU216HW,2013-03-13 23:00:00,
2013-03-13 18:05:00,32.0,17.2,30.33,West,270,1.8,3.4,54,0.00,,,0.00,WUHU216HW,2013-03-13 23:05:00,
2013-03-13 18:10:00,32.0,17.2,30.33,WSW,248,1.8,3.4,54,0.00,,,0.00,WUHU216HW,2013-03-13 23:10:00,
2013-03-13 18:15:00,30.6,16.7,30.33,WSW,248,3.4,4.9,56,0.00,,,0.00,WUHU216HW,2013-03-13 23:15:00,
2013-03-13 18:20:00,29.2,16.7,30.34,WSW,248,1.8,4.9,59,0.00,,,0.00,WUHU216HW,2013-03-13 23:20:00,
2013-03-13 18:25:00,28.6,16.9,30.34,WSW,248,2.0,4.3,61,0.00,,,0.00,WUHU216HW,2013-03-13 23:25:00,
2013-03-13 18:30:00,28.1,16.7,30.34,West,270,2.0,4.0,62,0.00,,,0.00,WUHU216HW,2013-03-13 23:30:00,
2013-03-13 18:35:00,27.4,16.0,30.34,WSW,248,2.5,4.0,62,0.00,,,0.00,WUHU216HW,2013-03-13 23:35:00,
2013-03-13 18:40:00,26.8,16.2,30.34,WSW,248,2.2,3.8,64,0.00,,,0.00,WUHU216HW,2013-03-13 23:40:00,
2013-03-13 18:45:00,26.3,16.0,30.33,West,270,3.4,4.7,65,0.00,,,0.00,WUHU216HW,2013-03-13 23:45:00,
2013-03-13 18:50:00,26.1,16.2,30.33,WSW,248,2.2,4.7,66,0.00,,,0.00,WUHU216HW,2013-03-13 23:50:00,
2013-03-13 18:55:00,25.7,15.8,30.33,WSW,248,1.1,3.4,66,0.00,,,0.00,WUHU216HW,2013-03-13 23:55:00,
2013-03-13 19:00:00,25.6,15.7,30.33,WSW,248,1.3,2.5,66,0.00,,,0.00,WUHU216HW,2013-03-14 00:00:00,
2013-03-13 19:05:00,25.4,15.8,30.33,West,270,1.3,2.5,67,0.00,,,0.00,WUHU216HW,2013-03-14 00:05:00,
2013-03-13 19:10:00,25.0,15.8,30.34,WSW,248,1.1,2.7,68,0.00,,,0.00,WUHU216HW,2013-03-14 00:10:00,
2013-03-13 19:15:00,24.8,16.0,30.34,West,270,2.2,2.7,69,0.00,,,0.00,WUHU216HW,2013-03-14 00:15:00,
2013-03-13 19:20:00,24.5,15.8,30.34,WNW,293,2.0,2.5,69,0.00,,,0.00,WUHU216HW,2013-03-14 00:20:00,
2013-03-13 19:25:00,24.3,15.6,30.34,West,270,0.7,2.9,69,0.00,,,0.00,WUHU216HW,2013-03-14 00:25:00,
2013-03-13 19:30:00,24.1,15.4,30.34,WSW,248,0.4,2.9,69,0.00,,,0.00,WUHU216HW,2013-03-14 00:30:00,
2013-03-13 19:35:00,23.9,15.2,30.34,NNW,338,0.2,1.6,69,0.00,,,0.00,WUHU216HW,2013-03-14 00:35:00,
2013-03-13 19:40:00,23.8,15.0,30.34,NW,315,0.2,0.9,69,0.00,,,0.00,WUHU216HW,2013-03-14 00:40:00,
2013-03-13 19:45:00,23.6,14.9,30.33,SW,225,0.0,0.9,69,0.00,,,0.00,WUHU216HW,2013-03-14 00:45:00,
2013-03-13 19:50:00,23.4,14.8,30.33,WNW,293,0.9,0.9,69,0.00,,,0.00,WUHU216HW,2013-03-14 00:50:00,
2013-03-13 19:55:00,23.2,15.6,30.34,West,270,0.9,0.9,72,0.00,,,0.00,WUHU216HW,2013-03-14 00:55:00,
2013-03-13 20:00:00,23.2,15.2,30.33,West,270,0.0,1.1,71,0.00,,,0.00,WUHU216HW,2013-03-14 01:00:00,
2013-03-13 20:05:00,23.2,15.2,30.33,West,270,0.2,1.1,71,0.00,,,0.00,WUHU216HW,2013-03-14 01:05:00,
2013-03-13 20:10:00,23.0,15.4,30.33,West,270,0.2,0.7,72,0.00,,,0.00,WUHU216HW,2013-03-14 01:10:00,
2013-03-13 20:15:00,22.9,14.9,30.33,WSW,248,0.0,0.9,71,0.00,,,0.00,WUHU216HW,2013-03-14 01:15:00,
2013-03-13 20:20:00,22.7,14.7,30.33,WSW,248,0.0,0.9,71,0.00,,,0.00,WUHU216HW,2013-03-14 01:20:00,
2013-03-13 20:25:00,22.7,14.7,30.32,SW,225,0.0,0.7,71,0.00,,,0.00,WUHU216HW,2013-03-14 01:25:00,
2013-03-13 20:30:00,22.7,14.7,30.32,WSW,248,0.0,0.7,71,0.00,,,0.00,WUHU216HW,2013-03-14 01:30:00,
2013-03-13 20:35:00,22.5,14.5,30.32,WSW,248,0.0,0.7,71,0.00,,,0.00,WUHU216HW,2013-03-14 01:35:00,
2013-03-13 20:40:00,22.3,14.3,30.31,SE,135,0.0,0.7,71,0.00,,,0.00,WUHU216HW,2013-03-14 01:40:00,
2013-03-13 20:45:00,22.3,14.3,30.31,SE,135,0.0,0.2,71,0.00,,,0.00,WUHU216HW,2013-03-14 01:45:00,
2013-03-13 20:50:00,22.3,14.7,30.31,SE,135,0.0,0.2,72,0.00,,,0.00,WUHU216HW,2013-03-14 01:50:00,
2013-03-13 20:55:00,22.1,14.5,30.31,SE,135,0.0,0.0,72,0.00,,,0.00,WUHU216HW,2013-03-14 01:55:00,
2013-03-13 21:00:00,22.0,14.3,30.31,SE,135,0.0,0.0,72,0.00,,,0.00,WUHU216HW,2013-03-14 02:00:00,
2013-03-13 21:05:00,22.0,14.3,30.31,SE,135,0.0,0.0,72,0.00,,,0.00,WUHU216HW,2013-03-14 02:05:00,
2013-03-13 21:10:00,22.0,14.3,30.31,SE,135,0.0,0.0,72,0.00,,,0.00,WUHU216HW,2013-03-14 02:10:00,
2013-03-13 21:15:00,22.0,14.6,30.30,WSW,248,0.0,0.2,73,0.00,,,0.00,WUHU216HW,2013-03-14 02:15:00,
2013-03-13 21:20:00,22.0,14.6,30.31,WSW,248,0.0,0.2,73,0.00,,,0.00,WUHU216HW,2013-03-14 02:20:00,
2013-03-13 21:25:00,22.0,14.6,30.30,SW,225,0.0,0.0,73,0.00,,,0.00,WUHU216HW,2013-03-14 02:25:00,
2013-03-13 21:30:00,22.0,14.6,30.30,South,180,0.0,0.2,73,0.00,,,0.00,WUHU216HW,2013-03-14 02:30:00,
2013-03-13 21:35:00,22.0,14.6,30.30,SE,135,0.0,0.2,73,0.00,,,0.00,WUHU216HW,2013-03-14 02:35:00,
2013-03-13 21:40:00,22.1,14.8,30.29,SE,135,0.0,0.0,73,0.00,,,0.00,WUHU216HW,2013-03-14 02:40:00,
2013-03-13 21:45:00,22.3,14.9,30.30,South,180,0.0,0.2,73,0.00,,,0.00,WUHU216HW,2013-03-14 02:45:00,
2013-03-13 21:50:00,22.3,14.9,30.30,WNW,293,0.0,0.2,73,0.00,,,0.00,WUHU216HW,2013-03-14 02:50:00,
2013-03-13 21:55:00,22.3,14.9,30.30,WNW,293,0.0,0.0,73,0.00,,,0.00,WUHU216HW,2013-03-14 02:55:00,
2013-03-13 22:00:00,22.5,15.5,30.29,ESE,113,0.2,0.2,74,0.00,,,0.00,WUHU216HW,2013-03-14 03:00:00,
2013-03-13 22:05:00,22.7,15.7,30.29,ESE,113,0.4,0.9,74,0.00,,,0.00,WUHU216HW,2013-03-14 03:05:00,
2013-03-13 22:10:00,22.9,16.1,30.29,NNE,23,0.0,0.9,75,0.00,,,0.00,WUHU216HW,2013-03-14 03:10:00,
2013-03-13 22:15:00,23.0,16.0,30.29,West,270,0.2,0.4,74,0.00,,,0.00,WUHU216HW,2013-03-14 03:15:00,
2013-03-13 22:20:00,22.9,15.9,30.29,West,270,0.0,0.4,74,0.00,,,0.00,WUHU216HW,2013-03-14 03:20:00,
2013-03-13 22:25:00,22.9,15.9,30.28,ESE,113,0.0,0.2,74,0.00,,,0.00,WUHU216HW,2013-03-14 03:25:00,
2013-03-13 22:30:00,23.0,15.7,30.28,ESE,113,0.0,0.2,73,0.00,,,0.00,WUHU216HW,2013-03-14 03:30:00,
2013-03-13 22:35:00,23.0,16.0,30.28,ESE,113,0.2,0.4,74,0.00,,,0.00,WUHU216HW,2013-03-14 03:35:00,
2013-03-13 22:40:00,23.4,16.3,30.28,SE,135,0.4,1.1,74,0.00,,,0.00,WUHU216HW,2013-03-14 03:40:00,
2013-03-13 22:45:00,23.4,16.3,30.28,SE,135,0.4,1.1,74,0.00,,,0.00,WUHU216HW,2013-03-14 03:45:00,
2013-03-13 22:50:00,23.8,17.0,30.28,SE,135,0.2,1.1,75,0.00,,,0.00,WUHU216HW,2013-03-14 03:50:00,
2013-03-13 22:55:00,23.9,17.1,30.28,SE,135,0.4,1.3,75,0.00,,,0.00,WUHU216HW,2013-03-14 03:55:00,
2013-03-13 23:00:00,23.9,16.8,30.28,ESE,113,0.7,1.3,74,0.00,,,0.00,WUHU216HW,2013-03-14 04:00:00,
2013-03-13 23:05:00,24.1,17.0,30.27,SSW,203,0.2,1.3,74,0.00,,,0.00,WUHU216HW,2013-03-14 04:05:00,
2013-03-13 23:10:00,24.1,17.3,30.27,SW,225,0.2,1.3,75,0.00,,,0.00,WUHU216HW,2013-03-14 04:10:00,
2013-03-13 23:15:00,24.1,17.3,30.27,South,180,0.2,1.8,75,0.00,,,0.00,WUHU216HW,2013-03-14 04:15:00,
2013-03-13 23:20:00,24.3,17.5,30.27,ENE,68,0.2,1.8,75,0.00,,,0.00,WUHU216HW,2013-03-14 04:20:00,
2013-03-13 23:25:00,24.5,18.0,30.27,WNW,293,0.2,1.8,76,0.00,,,0.00,WUHU216HW,2013-03-14 04:25:00,
2013-03-13 23:30:00,24.5,18.3,30.27,SSW,203,0.7,1.8,77,0.00,,,0.00,WUHU216HW,2013-03-14 04:30:00,
2013-03-13 23:35:00,24.7,18.5,30.27,SW,225,1.8,1.8,77,0.00,,,0.00,WUHU216HW,2013-03-14 04:35:00,
2013-03-13 23:40:00,24.8,18.0,30.26,South,180,1.1,2.5,75,0.00,,,0.00,WUHU216HW,2013-03-14 04:40:00,
2013-03-13 23:45:00,24.8,18.4,30.26,South,180,1.1,2.5,76,0.00,,,0.00,WUHU216HW,2013-03-14 04:45:00,
2013-03-13 23:50:00,24.8,18.0,30.26,ESE,113,2.5,2.5,75,0.00,,,0.00,WUHU216HW,2013-03-14 04:50:00,
2013-03-13 23:55:00,25.0,18.2,30.26,WSW,248,0.7,2.5,75,0.00,,,0.00,WUHU216HW,2013-03-14 04:55:00,